#timestamp,LO_Frequency,Hit,StdDev 
1621026015.5,286047001.1,N
1621026035.4,286046999.6,N
1621026055.2,286047000.5,N
1621026075.0,286046998.6,N
1621026075.9,286046998.6,N
1621026095.8,286047001.0,N
1621026115.6,286046999.6,N
1621026135.5,286046997.9,N
1621026155.3,286046998.5,N
1621026175.1,286046999.1,N
1621026195.9,286046998.4,N
1621026215.7,286046999.2,N
1621026235.6,286046996.9,N
1621026255.4,286046997.4,N
1621026275.2,286046996.7,N
1621026295.1,286046997.3,N
1621026296.0,286046997.3,N
1621026315.8,286046997.8,N
1621026335.7,286046997.9,N
1621026355.5,286046995.0,Y
1621026375.3,286046999.0,P
1621026395.2,286046999.4,N
1621026415.0,286046996.6,P
1621026415.9,286046996.6,Y
1621026435.8,286047000.8,P
1621026455.6,286046998.6,N
1621026475.4,286046998.4,N
1621026495.3,286046998.4,N
1621026515.1,286047000.7,N
1621026535.8,286046998.1,N
1621026555.7,286046998.7,N
1621026575.5,286046998.5,N
1621026595.4,286046998.6,N
1621026615.2,286046999.6,N
1621026665.1,286046997.5,E
1621026675.9,286046996.9,N
1621026695.7,286046999.4,P
1621026715.6,286046999.4,N
1621026735.4,286047000.8,N
1621026755.2,286046998.6,N
1621026775.1,286046998.4,N
1621026776.0,286046998.4,N
1621026795.8,286046998.7,N
1621026815.6,286047000.4,N
1621026835.5,286047001.1,N
1621026855.3,286047000.4,N
1621026875.2,286046998.3,N
1621026895.9,286047001.2,N
1621026915.7,286046999.0,N
1621026935.6,286046999.2,N
1621026955.4,286047000.7,N
1621026975.3,286047001.2,N
1621026995.1,286046998.7,N
1621026996.0,286046998.7,N
1621027015.8,286046998.6,N
1621027035.7,286047000.6,N
1621027055.5,286047000.2,N
1621027075.3,286047000.2,N
1621027095.2,286047000.4,N
1621027115.0,286047002.5,N
1621027115.9,286047002.5,N
1621027135.8,286047000.9,N
1621027155.6,286047000.2,N
1621027175.4,286047000.7,N
1621027195.3,286047001.1,N
1621027215.1,286046999.7,N
1621027235.9,286046999.4,N
1621027255.7,286046996.5,Y
1621027275.5,286046998.9,P
1621027295.4,286046997.8,P
1621027315.2,286046997.8,N
1621027335.1,286046996.9,Y
1621027336.0,286046996.9,P
1621027355.8,286047000.0,N
1621027375.6,286047000.1,N
1621027395.5,286047000.1,N
1621027415.3,286047000.4,N
1621027435.1,286046998.9,N
1621027455.9,286046999.6,N
1621027475.7,286046998.4,N
1621027495.6,286047000.3,N
1621027515.4,286047002.5,N
1621027535.2,286047000.9,N
1621027555.1,286046998.2,N
1621027556.0,286046998.2,N
1621027575.8,286046999.4,N
1621027595.7,286046999.2,N
1621027615.5,286047000.4,N
1621027635.3,286047000.6,N
1621027655.2,286046999.8,N
1621027675.0,286046999.8,N
1621027675.9,286046999.8,N
1621027695.8,286047000.0,N
1621027715.6,286046999.8,N
1621027735.4,286047002.5,N
1621027755.3,286047002.5,N
1621027775.1,286046999.9,N
1621027795.8,286047001.9,N
1621027815.7,286047001.4,N
1621027835.5,286047001.4,N
1621027855.4,286047002.0,N
1621027875.2,286047001.9,N
1621027895.0,286047003.8,N
1621027895.9,286047003.8,N
1621027915.8,286047004.3,N
1621027935.6,286047001.6,N
1621027955.5,286047004.4,N
1621027975.3,286046999.7,N
1621027995.1,286047000.3,N
1621028015.9,286046999.8,N
1621028035.7,286047002.0,N
1621028055.5,286047004.4,N
1621028075.4,286047003.7,N
1621028095.2,286047003.6,N
1621028115.1,286047005.8,Y
1621028116.0,286047005.8,P
1621028135.8,286047004.2,N
1621028155.6,286047005.3,N
1621028175.5,286047003.5,N
1621028195.3,286047001.7,N
1621028215.1,286047003.1,N
1621028235.9,286047002.9,N
1621028255.7,286047004.0,N
1621028275.6,286047003.1,N
1621028295.4,286047003.4,N
1621028315.2,286047004.1,Y
1621028335.1,286047002.4,P
1621028336.0,286047002.4,P
1621028355.8,286047002.1,P
1621028375.7,286046998.7,N
1621028395.5,286046999.0,N
1621028415.3,286046998.6,N
1621028435.2,286046998.9,N
1621028455.9,286047000.4,N
1621028475.7,286047000.1,N
1621028495.6,286047000.6,N
1621028515.4,286047000.3,N
1621028535.2,286047000.9,N
1621028555.1,286047002.5,N
1621028556.0,286047002.5,N
1621028575.8,286047003.7,N
1621028595.7,286047001.5,N
1621028615.5,286047002.0,N
1621028635.3,286046999.9,N
1621028655.2,286047000.9,N
1621028675.0,286047000.4,N
1621028675.9,286047000.4,N
1621028695.8,286047001.9,N
1621028715.6,286047000.7,N
1621028735.4,286047001.5,N
1621028755.3,286047003.9,N
1621028775.1,286047002.3,N
1621028795.9,286047000.7,N
1621028815.7,286047000.0,N
1621028835.5,286047002.7,N
1621028855.4,286047002.6,N
1621028875.2,286047002.3,N
1621028895.0,286047001.8,N
1621028895.9,286047001.8,N
1621028915.8,286047003.8,N
1621028935.6,286047002.6,N
1621028955.5,286047004.1,Y
1621028975.3,286047002.2,P
1621028995.1,286047001.8,P
1621029015.9,286047002.1,P
1621029035.7,286047004.4,Y
1621029055.5,286047000.9,P
1621029075.4,286047000.8,N
1621029095.2,286046998.1,P
1621029115.1,286046997.8,N
1621029116.0,286046997.8,N
1621029135.8,286046996.7,N
1621029155.6,286047000.0,N
1621029175.5,286046999.1,N
1621029195.3,286047002.4,N
1621029215.1,286047000.0,N
1621029235.9,286047000.3,N
1621029255.7,286047001.0,N
1621029275.6,286047000.9,N
1621029295.4,286047000.9,N
1621029315.2,286047000.1,N
1621029335.1,286047001.2,N
1621029336.0,286047001.2,N
1621029355.8,286046998.4,N
1621029375.7,286046998.9,N
1621029395.5,286046998.5,N
1621029415.3,286047001.2,N
1621029435.2,286046998.3,N
1621029455.9,286046997.4,N
1621029475.7,286046997.7,N
1621029495.6,286046995.6,N
1621029515.4,286046995.7,N
1621029535.2,286046995.2,N
1621029555.1,286046996.9,N
1621029556.0,286046996.9,N
1621029575.8,286046999.6,N
1621029595.7,286046997.1,N
